Elkins, WV

5:41 PM EDT on September 21, 2017 (GMT -0400)
Elkins-Randolph County

Weather History for KEKN - March, 2013

Change the Weather History Date:

Tuesday, March 19, 2013

  Actual Average Record
Temperature  
Mean Temperature 40 °F 41 °F  
Max Temperature 47 °F 53 °F 83 °F (1945)
Min Temperature 33 °F 29 °F 1 °F (1993)
Degree Days  
Heating Degree Days 25 24  
Month to date heating degree days 553 515  
Since 1 July heating degree days 4800 4836  
Cooling Degree Days 0 0  
Month to date cooling degree days 0 0  
Year to date cooling degree days 0 0  
Moisture  
Dew Point 26 °F    
Average Humidity 58    
Maximum Humidity 93    
Minimum Humidity 22    
Precipitation  
Precipitation 0.08 in 0.13 in 2.94 in (1963)
Month to date precipitation 1.95 2.38  
Year to date precipitation 8.56 8.71  
Snow  
Snow 0.00 in - - ()
Month to date snowfall 10.9  
Since 1 September snowfall 69.6  
Snow Depth 0.00 in    
Sea Level Pressure  
Sea Level Pressure 29.85 in    
Wind  
Wind Speed 13 mph (West)    
Max Wind Speed 32 mph    
Max Gust Speed 49 mph    
Visibility 9 miles    
Events Rain    
T = Trace of Precipitation, MM = Missing Value Source: NWS Daily Summary

Daily Weather History Graph

Daily Weather History Graph

Search for Another Location

Airport or City:

Trip Planner

Search our weather history database for the weather conditions in past years. The results will help you decide how hot, cold, wet, or windy it might be!

Date:

Astronomy

Mar. 19, 2013 Rise Set
Actual Time 7:24 AM EDT 7:30 PM EDT
Civil Twilight 6:57 AM EDT 7:57 PM EDT
Nautical Twilight 6:26 AM EDT 8:28 PM EDT
Astronomical Twilight 5:55 AM EDT 8:59 PM EDT
Moon 12:15 PM EDT (3/19) 2:13 AM EDT (3/19)
Length of Visible Light 12h 59m
Length of Day
12h 06m
Waxing Crescent, 49% of the Moon is Illuminated
Mar 19
Waxing Crescent
Mar 19
First Quarter
Mar 27
Full
Apr 3
Last Quarter
Apr 10
New

Hourly Weather History & Observations

Time (EDT) Temp. Windchill Dew Point Humidity Pressure Visibility Wind Dir Wind Speed Gust Speed Precip Events Conditions
12:27 AM 42.8 °F - 35.6 °F 76% 29.74 in 10.0 mi Calm Calm - N/A   Overcast
12:51 AM 43.0 °F - 37.0 °F 80% 29.79 in 10.0 mi Calm Calm - N/A   Overcast
1:19 AM 41.0 °F - 37.4 °F 87% 29.74 in 10.0 mi Calm Calm - 0.00 in   Overcast
1:46 AM 42.8 °F - 39.2 °F 87% 29.72 in 9.0 mi Calm Calm - 0.00 in Rain Light Rain
1:51 AM 42.1 °F - 39.0 °F 89% 29.77 in 9.0 mi Calm Calm - 0.00 in Rain Light Rain
2:51 AM 41.0 °F - 39.0 °F 93% 29.78 in 4.0 mi Calm Calm - 0.03 in Rain Light Rain
3:22 AM 41.0 °F - 39.2 °F 93% 29.74 in 2.5 mi Calm Calm - 0.01 in Rain Light Rain
3:37 AM 42.8 °F - 39.2 °F 87% 29.74 in 3.0 mi Calm Calm - 0.02 in Rain Light Rain
3:51 AM 43.0 °F - 41.0 °F 93% 29.78 in 6.0 mi Calm Calm - 0.02 in   Overcast
4:02 AM 46.4 °F 43.5 °F 42.8 °F 87% 29.73 in 10.0 mi West 5.8 mph - N/A   Overcast
4:46 AM 46.4 °F 43.5 °F 42.8 °F 87% 29.74 in 6.0 mi West 5.8 mph - 0.00 in Rain Light Rain
4:51 AM 45.0 °F 41.2 °F 42.1 °F 90% 29.78 in 6.0 mi WSW 6.9 mph - 0.00 in Rain Light Rain
5:19 AM 42.8 °F 35.4 °F 37.4 °F 81% 29.78 in 6.0 mi West 15.0 mph 23.0 mph 0.01 in Rain Light Rain
5:51 AM 41.0 °F 35.8 °F 37.0 °F 86% 29.85 in 6.0 mi NW 8.1 mph - 0.01 in Rain Light Rain
6:42 AM 37.4 °F 29.8 °F 33.8 °F 87% 29.85 in 10.0 mi West 11.5 mph 18.4 mph 0.02 in Rain Light Rain
6:51 AM 37.0 °F 29.8 °F 33.1 °F 86% 29.91 in 10.0 mi NW 10.4 mph 18.4 mph 0.02 in Rain Light Rain
7:26 AM 35.6 °F 26.2 °F 32.0 °F 87% 29.87 in 9.0 mi West 15.0 mph 23.0 mph 0.00 in Rain Light Rain
7:48 AM 35.6 °F 26.6 °F 30.2 °F 81% 29.87 in 10.0 mi West 13.8 mph 21.9 mph 0.00 in   Overcast
7:51 AM 36.0 °F 30.3 °F 28.9 °F 76% 29.92 in 10.0 mi West 6.9 mph 21.9 mph 0.00 in   Overcast
8:43 AM 35.6 °F 27.1 °F 26.6 °F 70% 29.88 in 10.0 mi WSW 12.7 mph 25.3 mph N/A   Overcast
8:51 AM 35.1 °F 28.6 °F 26.1 °F 70% 29.94 in 10.0 mi WSW 8.1 mph 17.3 mph N/A   Mostly Cloudy
9:51 AM 37.0 °F 28.9 °F 25.0 °F 62% 29.91 in 10.0 mi WSW 12.7 mph 18.4 mph N/A   Mostly Cloudy
10:51 AM 39.9 °F 34.5 °F 27.0 °F 60% 29.87 in 10.0 mi WSW 8.1 mph 20.7 mph N/A   Mostly Cloudy
11:51 AM 42.1 °F 33.6 °F 25.0 °F 51% 29.86 in 10.0 mi WSW 18.4 mph 33.4 mph N/A   Clear
12:51 PM 45.0 °F 36.9 °F 23.0 °F 42% 29.84 in 10.0 mi WSW 20.7 mph 31.1 mph N/A   Clear
1:51 PM 46.9 °F - 23.0 °F 39% 29.83 in 10.0 mi West 17.3 mph 29.9 mph N/A   Partly Cloudy
2:51 PM 46.0 °F 37.8 °F 14.0 °F 28% 29.84 in 10.0 mi West 23.0 mph 42.6 mph N/A   Clear
3:51 PM 46.0 °F 37.2 °F 14.0 °F 28% 29.84 in 10.0 mi WSW 26.5 mph 40.3 mph N/A   Clear
4:51 PM 45.0 °F 36.9 °F 9.0 °F 23% 29.86 in 10.0 mi West 20.7 mph 32.2 mph N/A   Clear
5:51 PM 44.1 °F 35.4 °F 9.0 °F 24% 29.89 in 10.0 mi West 21.9 mph 32.2 mph N/A   Mostly Cloudy
6:51 PM 42.1 °F 34.9 °F 6.1 °F 23% 29.94 in 10.0 mi West 13.8 mph 35.7 mph N/A   Clear
7:51 PM 39.2 °F 28.7 °F 6.8 °F 26% 29.90 in 10.0 mi WSW 23.0 mph 31.1 mph N/A   Clear
8:51 PM 37.9 °F 28.2 °F 3.9 °F 24% 29.98 in 10.0 mi WSW 18.4 mph 28.8 mph N/A   Clear
9:51 PM 37.0 °F 28.5 °F 3.0 °F 24% 30.01 in 10.0 mi WNW 13.8 mph 23.0 mph N/A   Clear
10:51 PM 36.0 °F 28.5 °F 3.9 °F 26% 30.02 in 10.0 mi WNW 10.4 mph 25.3 mph N/A   Clear
11:51 PM 34.0 °F 28.8 °F 5.0 °F 30% 30.04 in 10.0 mi West 5.8 mph - N/A   Clear